Theta_e
337 337 337 337 337 337 337 337 337 337 337 337 337 336 336 335 334 333 332 332 333 333 332 332 330 328 326 326 325 324 322 321 320 320 319 319 319 320 321 322 322 321
337 337 337 336 336 337 337 337 337 337 337 337 337 336 336 335 334 333 333 332 332 331 331 329 328 327 325 325 324 323 321 319 319 318 317 317 316 317 318 319 319 318
337 337 336 337 336 336 336 337 336 336 336 336 336 336 336 335 334 333 333 333 332 331 329 329 328 326 324 323 322 322 320 319 318 318 316 314 313 313 313 313 312 312
336 337 336 336 337 336 336 336 336 336 336 336 335 335 335 334 333 333 332 332 331 330 330 329 327 324 322 322 321 320 319 318 318 317 315 313 312 311 310 310 309 309
336 336 336 336 336 336 336 336 336 335 335 335 335 334 334 334 333 332 331 330 330 329 329 327 324 322 320 319 317 317 317 317 316 315 314 313 311 310 310 310 309 309
336 335 336 336 336 336 336 336 336 335 335 334 334 333 333 333 332 331 330 330 329 329 327 324 322 320 319 318 315 314 314 315 315 314 313 312 311 310 310 309 309 308
335 335 335 336 335 335 336 336 335 335 335 334 333 332 332 332 330 330 330 329 329 327 325 323 320 318 318 317 315 313 313 313 313 313 312 312 311 310 309 309 308 307
335 335 335 335 335 335 335 335 335 334 334 334 332 332 332 331 330 330 329 328 327 326 324 321 319 317 317 316 313 312 312 312 312 312 311 311 310 309 309 308 307 306
335 335 335 335 335 335 335 334 334 334 334 334 333 332 331 330 330 329 328 327 326 324 323 320 318 316 315 313 311 311 311 311 311 311 310 310 309 308 308 307 306 305
335 334 334 334 334 334 334 334 333 333 333 333 332 331 331 330 329 328 327 326 324 323 321 319 317 315 313 311 310 310 310 310 310 309 309 309 308 307 306 305 305 304
335 334 334 334 333 333 333 333 333 333 332 332 331 331 330 329 327 326 326 325 324 323 321 318 316 314 312 310 310 309 309 309 309 309 308 308 307 306 305 304 304 303
334 334 334 334 333 333 333 333 332 332 331 331 331 330 330 328 327 326 325 325 324 322 320 318 316 314 312 310 309 309 309 309 308 308 308 307 306 305 304 303 302 302
335 334 334 334 333 333 333 332 332 332 331 331 330 330 329 328 326 326 326 325 324 322 320 318 315 314 312 310 309 309 309 308 308 307 307 307 306 304 303 302 301 301
335 334 334 334 333 333 333 333 332 332 331 330 330 329 329 329 327 326 325 324 322 321 319 317 315 314 312 310 309 309 308 308 307 307 306 306 305 304 303 302 300 300
334 334 334 334 333 333 332 332 332 331 330 330 330 330 329 329 328 327 325 324 321 319 318 317 315 314 312 310 309 308 308 307 306 306 306 305 304 304 303 302 302 302
334 335 334 333 333 332 332 331 330 329 329 330 330 330 329 328 327 326 325 324 322 319 318 316 315 314 312 311 309 309 308 307 306 306 305 305 304 303 303 303 303 303
335 335 334 333 333 332 331 330 329 329 329 330 331 330 329 328 327 326 325 323 322 320 318 317 315 314 312 311 309 309 308 306 306 305 305 305 304 304 304 304 304 304
335 334 333 333 332 331 330 329 329 329 329 329 330 329 328 327 326 326 324 323 321 320 318 317 315 314 313 311 309 309 308 307 306 305 305 305 305 304 304 304 304 303
334 334 333 332 332 331 329 328 328 328 328 328 329 328 327 326 325 325 324 322 321 320 318 317 316 315 313 311 309 308 308 307 306 306 305 305 304 304 304 304 303 303
334 333 332 332 332 331 329 328 328 328 328 328 328 327 325 324 324 323 323 323 322 320 318 317 316 315 313 311 309 308 308 307 306 306 305 305 304 304 304 304 304 303
334 333 332 331 331 330 329 328 327 327 327 327 327 326 324 324 324 323 323 323 322 320 318 318 317 315 313 310 309 308 308 307 306 306 305 305 304 304 304 304 304 303
334 333 332 331 330 329 328 326 327 327 326 325 325 324 323 323 323 322 322 323 322 320 319 318 317 315 312 310 309 308 308 307 306 306 305 305 305 304 304 304 304 304
334 333 332 331 329 328 327 326 326 326 324 324 324 321 320 321 321 320 322 324 322 320 320 319 317 314 312 310 309 308 308 307 306 306 306 305 305 305 305 304 304 303
333 333 332 330 329 327 326 326 326 325 325 325 323 322 321 321 321 320 321 323 323 322 321 319 317 314 312 311 309 308 308 307 307 306 305 305 305 305 305 304 304 304
333 333 332 330 328 327 326 326 326 325 325 324 323 324 324 321 320 320 321 322 323 322 321 320 317 314 313 311 309 308 308 307 307 306 306 305 305 305 304 304 304 304
332 332 331 330 328 327 327 327 326 325 324 321 321 323 322 320 320 320 322 323 323 321 320 319 317 315 313 312 310 309 308 308 307 307 306 305 305 305 304 304 304 304
Wind_Speed
36 37 36 35 34 33 32 31 31 31 30 30 29 28 27 26 25 25 23 22 21 20 19 18 17 16 15 15 15 15 17 17 16 16 16 16 18 18 19 19 18 18
37 37 36 35 34 33 32 32 31 30 30 30 29 28 27 27 26 25 23 22 21 19 18 17 16 16 15 15 15 14 15 16 15 15 15 15 16 17 17 16 16 17
37 37 36 35 35 33 32 31 30 30 30 29 29 28 28 28 27 26 24 23 21 19 18 17 16 16 16 15 15 14 15 16 15 14 14 14 15 15 14 14 14 14
37 37 36 35 35 34 32 31 30 30 30 29 29 29 28 28 28 26 25 23 21 20 18 18 18 18 17 16 16 16 16 16 15 14 14 13 14 13 13 13 13 13
37 36 35 35 34 33 33 32 31 30 30 29 29 29 29 29 28 27 26 24 22 20 19 19 19 19 18 16 15 16 16 16 16 15 14 14 14 14 14 13 13 13
37 36 35 35 34 34 33 33 32 31 30 29 30 30 30 29 29 28 26 25 22 21 20 20 20 20 17 14 14 15 15 16 16 15 15 15 15 14 14 13 13 13
37 36 35 35 34 34 34 32 32 31 30 30 30 30 30 30 29 28 26 24 22 21 21 21 21 20 17 14 15 16 15 16 16 16 16 16 15 15 14 13 13 13
36 35 35 35 34 34 33 33 32 31 30 30 30 31 31 30 29 27 25 24 22 21 21 21 21 19 16 16 18 17 17 17 17 17 17 17 16 16 15 14 14 13
34 34 34 34 34 34 34 33 32 32 31 31 31 31 31 30 29 27 25 24 22 22 21 21 21 19 16 17 18 17 17 17 17 17 17 16 16 16 16 15 15 14
34 34 34 34 34 34 34 33 32 32 31 31 31 31 31 30 28 27 25 24 23 22 22 21 21 19 17 17 17 16 16 16 16 16 16 15 15 16 16 16 16 16
34 34 35 35 34 34 34 33 33 32 31 31 31 32 32 30 29 27 26 24 23 23 22 21 20 19 18 17 17 16 15 15 15 15 15 15 15 16 16 17 16 17
34 35 35 35 34 33 33 33 33 32 31 31 32 32 32 31 29 28 26 24 23 23 22 21 20 19 18 18 18 17 16 15 15 15 15 15 16 16 16 16 16 17
35 35 36 35 34 33 33 33 33 32 31 31 32 32 32 31 29 28 25 24 23 23 22 20 19 18 18 18 18 18 17 17 16 16 16 17 17 17 16 16 16 17
35 35 35 35 33 33 33 33 32 32 31 31 31 31 31 30 29 26 25 24 23 23 21 20 19 19 20 20 19 19 18 17 17 17 18 18 17 17 16 16 17 17
34 34 34 34 33 33 33 33 32 32 32 31 31 30 29 28 26 25 24 24 24 23 21 20 20 20 20 20 20 19 19 18 18 18 18 19 18 18 17 17 17 17
33 33 33 33 33 33 32 32 32 32 32 31 30 29 28 27 25 24 25 25 25 24 22 21 21 21 20 20 20 19 19 19 19 19 19 19 19 20 20 19 18 17
33 33 34 34 34 33 32 32 32 32 32 31 30 29 28 27 25 25 25 26 25 24 23 22 22 21 20 20 19 19 19 19 19 20 20 20 20 21 21 20 19 18
34 33 34 34 34 32 32 32 32 32 32 31 30 29 28 27 26 26 26 26 25 24 23 22 22 21 20 19 19 19 19 19 20 20 21 21 21 21 21 21 20 19
34 34 34 35 34 33 32 32 32 32 32 31 30 29 29 29 27 26 26 26 26 24 23 22 21 20 20 19 20 20 19 19 20 21 21 21 21 22 21 21 21 21
34 34 34 34 35 34 32 32 33 33 32 31 30 29 29 30 28 26 26 27 25 24 23 22 21 20 19 20 20 20 20 20 20 21 21 21 21 22 22 22 22 22
35 35 34 33 34 34 34 34 34 33 32 31 31 31 31 31 30 28 28 27 25 24 23 22 20 19 19 20 20 20 20 20 21 21 21 21 22 22 22 23 23 22
35 35 34 33 34 34 34 34 34 33 32 32 31 31 31 31 30 29 29 28 26 25 24 22 21 20 20 20 21 21 21 21 21 21 22 22 23 23 23 24 23 22
36 35 34 34 34 34 33 34 34 33 32 32 31 30 30 30 30 29 29 29 27 26 24 23 22 21 21 21 21 22 22 22 22 23 22 23 24 24 24 25 23 22
36 36 35 34 34 34 33 33 33 33 33 33 33 31 31 31 31 30 30 29 27 25 24 23 23 22 21 21 22 22 23 23 24 23 23 23 24 24 25 25 24 23
35 36 36 35 34 33 34 34 34 34 34 34 34 34 34 33 31 30 31 29 27 25 24 24 23 22 22 22 23 23 23 24 25 24 23 24 24 24 25 26 25 25
35 36 36 36 34 33 34 35 35 34 34 34 33 33 33 32 31 31 31 30 28 26 25 26 25 23 23 23 24 24 25 26 26 25 24 25 25 25 26 27 27 27
Wind_Direction
200 200 201 200 200 202 203 203 205 208 209 209 208 207 206 204 203 202 201 204 207 211 216 221 225 227 226 227 231 231 228 225 225 228 231 233 233 233 233 232 232 233
200 201 201 200 200 202 204 207 210 211 210 210 211 210 207 206 206 204 205 207 209 213 218 223 228 231 230 227 231 236 233 230 227 228 231 233 233 233 232 232 233 232
200 201 201 200 200 201 203 207 211 212 211 210 211 210 207 206 206 206 209 211 214 216 221 228 234 236 231 226 232 239 237 236 236 232 230 228 229 229 226 225 225 222
201 202 201 200 201 201 203 205 207 209 209 209 209 208 207 207 206 206 209 212 216 220 225 232 236 234 226 223 230 233 232 237 239 234 228 222 220 220 217 214 211 208
201 202 201 201 201 201 202 204 206 207 207 207 208 207 206 207 206 207 208 211 216 221 227 231 231 228 225 226 228 226 226 231 232 228 223 216 212 210 210 208 205 204
201 201 201 201 201 201 201 203 206 207 207 208 208 206 205 206 206 206 208 211 216 221 224 227 226 225 228 231 228 224 225 227 225 220 215 212 209 205 204 207 206 206
200 200 200 200 200 200 201 202 205 206 208 210 207 204 204 205 205 206 209 212 216 220 222 224 225 224 227 229 226 224 222 222 220 214 210 210 208 204 202 205 209 207
199 198 197 199 198 198 199 200 202 204 207 209 206 204 205 206 206 207 210 213 216 219 220 224 226 226 225 221 219 219 217 215 215 211 209 207 204 204 203 204 208 206
197 196 196 197 196 196 197 199 201 202 206 209 207 206 207 207 209 210 210 212 215 218 220 223 226 226 224 216 212 213 212 211 211 209 208 206 204 205 205 204 204 201
195 194 194 195 195 195 196 198 200 201 204 207 207 207 206 206 208 210 210 212 214 217 219 220 223 223 222 217 213 215 215 212 210 209 209 212 211 209 207 205 203 199
194 192 193 194 194 194 195 197 198 199 201 203 204 205 205 205 206 207 210 213 216 219 219 218 220 221 220 218 216 218 219 219 216 213 213 214 214 213 211 208 205 201
192 191 193 194 193 192 194 196 197 198 199 200 202 203 203 204 205 207 210 214 218 219 220 219 220 219 219 219 219 219 220 220 218 216 216 214 213 213 212 209 206 202
191 191 192 193 192 192 193 195 197 199 199 200 202 202 202 203 205 208 211 215 218 219 219 221 220 219 219 220 220 219 219 218 216 215 214 212 211 210 209 208 203 200
190 190 190 191 191 191 193 196 198 199 199 200 201 201 203 206 207 209 212 214 217 218 219 220 219 219 219 218 218 218 218 218 216 214 211 209 207 206 205 204 200 198
187 187 188 189 189 190 193 196 198 198 197 199 201 202 205 207 209 211 213 213 214 216 218 219 219 221 221 219 218 215 216 218 216 214 212 207 203 202 202 200 197 197
184 184 185 186 188 191 193 194 195 195 195 197 200 203 205 207 209 212 213 214 214 214 216 218 220 222 223 222 221 218 218 217 214 213 211 208 204 200 197 196 196 197
182 183 184 185 187 190 191 191 191 192 193 196 199 202 205 207 209 211 212 214 215 216 217 218 220 222 224 223 222 222 221 217 214 213 210 209 207 201 197 196 197 198
182 182 182 182 185 187 188 188 188 190 192 194 196 200 203 204 207 209 211 213 215 217 218 220 221 223 224 223 222 222 222 220 217 214 210 209 207 204 200 197 196 197
180 180 180 180 182 185 186 185 186 189 191 192 195 198 201 202 204 207 210 212 213 216 218 220 222 224 224 223 222 221 220 220 218 216 213 209 207 204 201 198 197 197
179 179 179 179 180 183 184 184 186 189 191 193 195 196 198 199 200 204 209 211 214 217 218 220 223 225 224 222 222 221 219 219 219 217 214 211 208 206 204 203 203 202
178 178 178 177 178 181 183 184 186 188 189 192 195 196 198 199 200 203 206 208 213 216 218 220 223 224 223 222 221 219 218 218 218 216 214 212 210 209 209 210 210 210
178 177 175 175 177 179 181 182 184 187 189 191 193 196 197 198 199 202 204 206 211 214 216 220 222 221 221 221 220 218 216 216 216 214 213 213 210 211 214 215 216 218
177 175 174 175 177 179 180 181 184 187 188 190 190 190 192 195 199 202 204 207 210 212 215 219 219 218 218 218 217 216 214 214 215 214 213 213 212 214 216 218 221 223
177 175 175 176 178 178 178 180 183 187 190 192 192 190 192 197 200 202 204 207 211 214 217 219 219 216 215 216 216 216 214 214 214 212 211 212 214 216 219 221 223 221
175 176 176 178 178 178 178 181 185 188 191 193 193 193 195 198 200 200 202 206 212 216 217 219 219 216 213 215 215 214 213 214 214 212 212 214 217 218 219 220 222 220
174 176 178 179 178 178 181 185 187 189 191 191 190 191 194 195 197 199 202 206 212 215 216 218 219 216 213 214 215 214 213 214 213 214 215 217 218 218 218 219 221 222